| time (UTC) | temp F | wind direction | speed MPH | gust MPH | rain 1hr in | rain 24hr in | rain mn in | humidity % | barometer mb |
| 20260506051313 | 57 | 232 | 2.0 | 5.0 | 0.00 | 0.00 | 0.00 | 88 | 1019.0 |
| 20260506050811 | 57 | 254 | 1.0 | 6.0 | 0.00 | 0.00 | 0.00 | 88 | 1019.0 |
| 20260506050308 | 57 | 233 | 1.0 | 4.0 | 0.00 | 0.00 | 0.00 | 88 | 1018.8 |
| 20260506044758 | 57 | 229 | 0.0 | 5.0 | 0.00 | 0.00 | 0.00 | 88 | 1018.8 |
| 20260506044256 | 57 | 231 | 2.0 | 4.0 | 0.00 | 0.00 | 0.00 | 88 | 1018.7 |
| 20260506043753 | 57 | 222 | 0.0 | 5.0 | 0.00 | 0.00 | 0.00 | 88 | 1018.5 |
| 20260506043250 | 57 | 252 | 2.0 | 7.0 | 0.00 | 0.00 | 0.00 | 88 | 1018.7 |
| 20260506042749 | 57 | 239 | 2.0 | 6.0 | 0.00 | 0.00 | 0.00 | 88 | 1018.7 |
| 20260506042247 | 57 | 248 | 1.0 | 5.0 | 0.00 | 0.00 | 0.00 | 87 | 1018.7 |
| 20260506041745 | 57 | 232 | 2.0 | 4.0 | 0.00 | 0.00 | 0.00 | 88 | 1018.6 |
| 20260506041242 | 57 | 236 | 1.0 | 5.0 | 0.00 | 0.00 | 0.00 | 87 | 1018.6 |
| 20260506040739 | 57 | 225 | 2.0 | 6.0 | 0.00 | 0.00 | 0.00 | 87 | 1018.7 |
| 20260506040236 | 57 | 242 | 0.0 | 5.0 | 0.00 | 0.00 | 0.00 | 88 | 1018.7 |
| 20260506035733 | 57 | 207 | 0.0 | 5.0 | 0.00 | 0.00 | 0.00 | 88 | 1018.4 |
| 20260506035230 | 57 | 269 | 0.0 | 5.0 | 0.00 | 0.00 | 0.00 | 88 | 1018.3 |
| 20260506034727 | 57 | 232 | 1.0 | 4.0 | 0.00 | 0.00 | 0.00 | 88 | 1018.3 |
| 20260506034224 | 57 | 228 | 1.0 | 4.0 | 0.00 | 0.00 | 0.00 | 88 | 1018.4 |
| 20260506033721 | 57 | 222 | 2.0 | 4.0 | 0.00 | 0.00 | 0.00 | 89 | 1018.3 |
| 20260506033218 | 57 | 222 | 3.0 | 4.0 | 0.00 | 0.00 | 0.00 | 89 | 1018.1 |
| 20260506032715 | 57 | 231 | 0.0 | 3.0 | 0.00 | 0.00 | 0.00 | 89 | 1018.3 |
| 20260506032212 | 57 | 40 | 2.0 | 4.0 | 0.00 | 0.00 | 0.00 | 89 | 1018.2 |
| 20260506031709 | 57 | 228 | 2.0 | 4.0 | 0.00 | 0.00 | 0.00 | 89 | 1018.1 |
| 20260506031206 | 57 | 212 | 0.0 | 4.0 | 0.00 | 0.00 | 0.00 | 88 | 1017.9 |
| 20260506030704 | 57 | 238 | 2.0 | 3.0 | 0.00 | 0.00 | 0.00 | 88 | 1018.0 |
| 20260506030201 | 57 | 241 | 2.0 | 3.0 | 0.00 | 0.00 | 0.00 | 88 | 1017.5 |
| 20260506025658 | 57 | 186 | 0.0 | 6.0 | 0.00 | 0.00 | 0.00 | 88 | 1017.7 |
| 20260506025154 | 57 | 231 | 2.0 | 5.0 | 0.00 | 0.00 | 0.00 | 87 | 1017.6 |
| 20260506024646 | 57 | 227 | 1.0 | 4.0 | 0.00 | 0.00 | 0.00 | 87 | 1017.6 |
| 20260506024142 | 58 | 220 | 0.0 | 4.0 | 0.00 | 0.00 | 0.00 | 87 | 1017.8 |
| 20260506023638 | 58 | 172 | 0.0 | 3.0 | 0.00 | 0.00 | 0.00 | 86 | 1017.7 |
| 20260506023136 | 58 | 236 | 1.0 | 4.0 | 0.00 | 0.00 | 0.00 | 86 | 1017.9 |
| 20260506022633 | 58 | 267 | 2.0 | 3.0 | 0.00 | 0.00 | 0.00 | 86 | 1017.9 |
| 20260506022130 | 58 | 252 | 4.0 | 5.0 | 0.00 | 0.00 | 0.00 | 85 | 1018.0 |
| 20260506021628 | 58 | 265 | 1.0 | 7.0 | 0.00 | 0.00 | 0.00 | 85 | 1017.5 |
| 20260506021125 | 59 | 283 | 0.0 | 4.0 | 0.00 | 0.00 | 0.00 | 84 | 1017.8 |
| 20260506020622 | 59 | 48 | 0.0 | 5.0 | 0.00 | 0.00 | 0.00 | 83 | 1017.6 |
| 20260506020120 | 59 | 238 | 2.0 | 10.0 | 0.00 | 0.00 | 0.00 | 82 | 1017.8 |
| 20260506015617 | 59 | 296 | 1.0 | 4.0 | 0.00 | 0.00 | 0.00 | 82 | 1017.6 |
| 20260506015114 | 59 | 221 | 2.0 | 5.0 | 0.00 | 0.00 | 0.00 | 82 | 1017.7 |
| 20260506014612 | 59 | 298 | 0.0 | 4.0 | 0.00 | 0.00 | 0.00 | 82 | 1017.6 |
| 20260506014107 | 59 | 201 | 1.0 | 5.0 | 0.00 | 0.00 | 0.00 | 81 | 1017.6 |
| 20260506013605 | 59 | 256 | 2.0 | 6.0 | 0.00 | 0.00 | 0.00 | 81 | 1017.7 |
| 20260506013102 | 59 | 268 | 1.0 | 5.0 | 0.00 | 0.00 | 0.00 | 81 | 1017.6 |
| 20260506012558 | 59 | 239 | 0.0 | 5.0 | 0.00 | 0.00 | 0.00 | 80 | 1017.3 |
| 20260506012055 | 59 | 247 | 2.0 | 5.0 | 0.00 | 0.00 | 0.00 | 80 | 1017.3 |
| 20260506011553 | 59 | 167 | 1.0 | 7.0 | 0.00 | 0.00 | 0.00 | 81 | 1017.4 |
| 20260506011048 | 60 | 298 | 3.0 | 4.0 | 0.00 | 0.00 | 0.00 | 80 | 1017.6 |
| 20260506010548 | 60 | 249 | 2.0 | 5.0 | 0.00 | 0.00 | 0.00 | 80 | 1017.5 |
| 20260506010044 | 61 | 195 | 2.0 | 3.0 | 0.00 | 0.00 | 0.00 | 79 | 1017.5 |
| 20260506005541 | 60 | 260 | 3.0 | 4.0 | 0.00 | 0.00 | 0.00 | 79 | 1017.6 |
| 20260506005037 | 60 | 263 | 3.0 | 5.0 | 0.00 | 0.00 | 0.00 | 78 | 1017.4 |
| 20260506004535 | 60 | 230 | 1.0 | 7.0 | 0.00 | 0.00 | 0.00 | 77 | 1017.6 |
| 20260506004031 | 61 | 334 | 2.0 | 7.0 | 0.00 | 0.00 | 0.00 | 77 | 1017.4 |
| 20260506003528 | 61 | 284 | 2.0 | 6.0 | 0.00 | 0.00 | 0.00 | 77 | 1017.3 |
| 20260506003024 | 61 | 232 | 2.0 | 7.0 | 0.00 | 0.00 | 0.00 | 76 | 1017.4 |
| 20260506002520 | 62 | 118 | 1.0 | 4.0 | 0.00 | 0.00 | 0.00 | 76 | 1017.4 |
| 20260506002016 | 62 | 154 | 0.0 | 9.0 | 0.00 | 0.00 | 0.00 | 75 | 1017.4 |
| 20260506001512 | 62 | 326 | 3.0 | 9.0 | 0.00 | 0.00 | 0.00 | 74 | 1017.3 |
| 20260506001010 | 63 | 313 | 2.0 | 9.0 | 0.00 | 0.00 | 0.00 | 73 | 1017.3 |
| 20260506000507 | 63 | 299 | 5.0 | 10.0 | 0.00 | 0.00 | 0.00 | 72 | 1017.2 |
| 20260506000004 | 63 | 260 | 3.0 | 7.0 | 0.00 | 0.00 | 0.00 | 72 | 1017.2 |
| 20260505235502 | 63 | 258 | 0.0 | 8.0 | 0.00 | 0.00 | 0.00 | 72 | 1017.1 |
| 20260505234959 | 63 | 278 | 2.0 | 7.0 | 0.00 | 0.00 | 0.00 | 72 | 1017.1 |
| 20260505234456 | 63 | 245 | 6.0 | 9.0 | 0.00 | 0.00 | 0.00 | 71 | 1017.3 |
| 20260505233953 | 64 | 299 | 5.0 | 8.0 | 0.00 | 0.00 | 0.00 | 69 | 1017.2 |
| 20260505233450 | 64 | 12 | 2.0 | 12.0 | 0.00 | 0.00 | 0.00 | 70 | 1017.1 |
| 20260505232947 | 65 | 26 | 4.0 | 9.0 | 0.00 | 0.00 | 0.00 | 68 | 1017.1 |
| 20260505232446 | 65 | 24 | 2.0 | 5.0 | 0.00 | 0.00 | 0.00 | 68 | 1017.3 |
| 20260505231942 | 66 | 307 | 2.0 | 9.0 | 0.00 | 0.00 | 0.00 | 67 | 1017.2 |
| 20260505231440 | 67 | 165 | 2.0 | 7.0 | 0.00 | 0.00 | 0.00 | 66 | 1017.2 |
| 20260505230938 | 67 | 355 | 3.0 | 7.0 | 0.00 | 0.00 | 0.00 | 66 | 1017.1 |
| 20260505230435 | 66 | 223 | 0.0 | 9.0 | 0.00 | 0.00 | 0.00 | 69 | 1017.2 |
| 20260505225931 | 65 | 346 | 2.0 | 12.0 | 0.00 | 0.00 | 0.00 | 71 | 1016.9 |
| 20260505225429 | 65 | 332 | 3.0 | 8.0 | 0.00 | 0.00 | 0.00 | 71 | 1017.2 |
| 20260505224924 | 65 | 244 | 5.0 | 10.0 | 0.00 | 0.00 | 0.00 | 70 | 1017.2 |
| 20260505224421 | 64 | 218 | 2.0 | 5.0 | 0.00 | 0.00 | 0.00 | 72 | 1017.4 |
| 20260505223918 | 64 | 38 | 1.0 | 8.0 | 0.00 | 0.00 | 0.00 | 72 | 1017.3 |
| 20260505223416 | 67 | 188 | 2.0 | 7.0 | 0.00 | 0.00 | 0.00 | 67 | 1017.4 |
| 20260505222912 | 67 | 321 | 3.0 | 5.0 | 0.00 | 0.00 | 0.00 | 68 | 1017.5 |
| 20260505222408 | 65 | 279 | 2.0 | 10.0 | 0.00 | 0.00 | 0.00 | 71 | 1017.3 |
| 20260505221904 | 64 | 304 | 2.0 | 9.0 | 0.00 | 0.00 | 0.00 | 71 | 1017.4 |
| 20260505221401 | 65 | 261 | 5.0 | 9.0 | 0.00 | 0.00 | 0.00 | 72 | 1017.5 |
| 20260505220858 | 63 | 282 | 4.0 | 9.0 | 0.00 | 0.00 | 0.00 | 73 | 1017.3 |
| 20260505220355 | 64 | 288 | 3.0 | 14.0 | 0.00 | 0.00 | 0.00 | 73 | 1017.3 |
| 20260505215853 | 64 | 334 | 4.0 | 11.0 | 0.00 | 0.00 | 0.00 | 73 | 1017.5 |
| 20260505215351 | 64 | 245 | 1.0 | 9.0 | 0.00 | 0.00 | 0.00 | 75 | 1017.6 |
| 20260505214849 | 64 | 252 | 1.0 | 6.0 | 0.00 | 0.00 | 0.00 | 74 | 1017.4 |
| 20260505214346 | 64 | 224 | 3.0 | 8.0 | 0.00 | 0.00 | 0.00 | 73 | 1017.4 |
| 20260505213843 | 63 | 287 | 3.0 | 9.0 | 0.00 | 0.00 | 0.00 | 74 | 1017.3 |
| 20260505213341 | 63 | 282 | 4.0 | 9.0 | 0.00 | 0.00 | 0.00 | 75 | 1017.5 |
| 20260505212837 | 63 | 203 | 2.0 | 11.0 | 0.00 | 0.00 | 0.00 | 75 | 1017.7 |
| 20260505212334 | 63 | 261 | 3.0 | 9.0 | 0.00 | 0.00 | 0.00 | 74 | 1017.7 |
| 20260505211830 | 63 | 252 | 4.0 | 12.0 | 0.00 | 0.00 | 0.00 | 74 | 1017.6 |
| 20260505211328 | 64 | 315 | 2.0 | 9.0 | 0.00 | 0.00 | 0.00 | 73 | 1017.9 |
| 20260505210824 | 64 | 300 | 2.0 | 6.0 | 0.00 | 0.00 | 0.00 | 73 | 1017.6 |
| 20260505210321 | 64 | 275 | 4.0 | 8.0 | 0.00 | 0.00 | 0.00 | 71 | 1017.7 |
| 20260505205818 | 64 | 279 | 0.0 | 12.0 | 0.00 | 0.00 | 0.00 | 73 | 1017.7 |
| 20260505205316 | 63 | 255 | 3.0 | 9.0 | 0.00 | 0.00 | 0.00 | 73 | 1017.6 |
| 20260505204812 | 65 | 317 | 3.0 | 10.0 | 0.00 | 0.00 | 0.00 | 71 | 1017.6 |
| 20260505204311 | 64 | 134 | 1.0 | 7.0 | 0.00 | 0.00 | 0.00 | 71 | 1017.6 |
| 20260505203808 | 64 | 300 | 2.0 | 10.0 | 0.00 | 0.00 | 0.00 | 72 | 1017.5 |
| 20260505203304 | 64 | 326 | 3.0 | 9.0 | 0.00 | 0.00 | 0.00 | 71 | 1017.4 |
| 20260505202800 | 64 | 336 | 4.0 | 10.0 | 0.00 | 0.00 | 0.00 | 71 | 1017.7 |
| 20260505202256 | 64 | 229 | 3.0 | 9.0 | 0.00 | 0.00 | 0.00 | 72 | 1017.7 |
| 20260505201753 | 64 | 214 | 2.0 | 7.0 | 0.00 | 0.00 | 0.00 | 71 | 1017.6 |
| 20260505201251 | 64 | 239 | 0.0 | 6.0 | 0.00 | 0.00 | 0.00 | 72 | 1017.7 |
| 20260505200749 | 63 | 280 | 0.0 | 6.0 | 0.00 | 0.00 | 0.00 | 72 | 1017.8 |
| 20260505200246 | 63 | 324 | 2.0 | 10.0 | 0.00 | 0.00 | 0.00 | 72 | 1017.7 |
| 20260505195741 | 63 | 350 | 0.0 | 12.0 | 0.00 | 0.00 | 0.00 | 72 | 1017.8 |
| 20260505195239 | 62 | 277 | 0.0 | 6.0 | 0.00 | 0.00 | 0.00 | 74 | 1017.7 |
| 20260505194736 | 63 | 273 | 1.0 | 8.0 | 0.00 | 0.00 | 0.00 | 72 | 1017.8 |
| 20260505194232 | 63 | 207 | 0.0 | 6.0 | 0.00 | 0.00 | 0.00 | 72 | 1017.8 |
| 20260505193728 | 62 | 288 | 3.0 | 9.0 | 0.00 | 0.00 | 0.00 | 74 | 1017.8 |
| 20260505193226 | 62 | 301 | 2.0 | 10.0 | 0.00 | 0.00 | 0.00 | 76 | 1017.9 |
| 20260505192724 | 61 | 262 | 4.0 | 7.0 | 0.00 | 0.00 | 0.00 | 76 | 1017.8 |
| 20260505192222 | 61 | 186 | 3.0 | 9.0 | 0.00 | 0.00 | 0.00 | 76 | 1018.0 |
| 20260505191720 | 62 | 316 | 2.0 | 6.0 | 0.00 | 0.00 | 0.00 | 75 | 1018.1 |
| 20260505191218 | 61 | 242 | 3.0 | 8.0 | 0.00 | 0.00 | 0.00 | 74 | 1017.9 |
| 20260505190714 | 62 | 322 | 3.0 | 5.0 | 0.00 | 0.00 | 0.00 | 75 | 1017.7 |
| 20260505190213 | 61 | 333 | 2.0 | 4.0 | 0.00 | 0.00 | 0.00 | 77 | 1018.1 |
| 20260505185710 | 60 | 124 | 0.0 | 7.0 | 0.00 | 0.00 | 0.00 | 78 | 1018.1 |
| 20260505185207 | 60 | 264 | 4.0 | 8.0 | 0.00 | 0.00 | 0.00 | 79 | 1018.0 |
| 20260505184703 | 60 | 100 | 0.0 | 4.0 | 0.00 | 0.00 | 0.00 | 79 | 1018.0 |
| 20260505184201 | 60 | 359 | 1.0 | 5.0 | 0.00 | 0.00 | 0.00 | 78 | 1018.1 |
| 20260505183657 | 61 | 242 | 3.0 | 5.0 | 0.00 | 0.00 | 0.00 | 77 | 1018.1 |
| 20260505183155 | 61 | 233 | 0.0 | 7.0 | 0.00 | 0.00 | 0.00 | 77 | 1018.1 |
| 20260505182650 | 60 | 135 | 0.0 | 3.0 | 0.00 | 0.00 | 0.00 | 78 | 1017.9 |
| 20260505182148 | 60 | 74 | 0.0 | 5.0 | 0.00 | 0.00 | 0.00 | 78 | 1018.0 |
| 20260505181644 | 60 | 111 | 1.0 | 7.0 | 0.00 | 0.00 | 0.00 | 78 | 1018.0 |
| 20260505181142 | 60 | 317 | 2.0 | 4.0 | 0.00 | 0.00 | 0.00 | 77 | 1017.8 |
| 20260505180638 | 60 | 289 | 1.0 | 3.0 | 0.00 | 0.00 | 0.00 | 78 | 1017.7 |
| 20260505180135 | 60 | 276 | 2.0 | 7.0 | 0.00 | 0.00 | 0.00 | 79 | 1017.6 |
| 20260505175631 | 59 | 269 | 0.0 | 6.0 | 0.00 | 0.00 | 0.00 | 79 | 1017.5 |
| 20260505175128 | 59 | 211 | 2.0 | 7.0 | 0.00 | 0.00 | 0.00 | 79 | 1017.5 |
| 20260505174624 | 59 | 240 | 3.0 | 7.0 | 0.00 | 0.00 | 0.00 | 79 | 1017.4 |
| 20260505174120 | 58 | 278 | 0.0 | 5.0 | 0.00 | 0.00 | 0.00 | 81 | 1017.1 |
| 20260505173617 | 58 | 242 | 4.0 | 7.0 | 0.00 | 0.00 | 0.00 | 83 | 1017.4 |
| 20260505173115 | 57 | 218 | 4.0 | 6.0 | 0.00 | 0.00 | 0.00 | 84 | 1017.4 |
| 20260505172612 | 57 | 183 | 2.0 | 5.0 | 0.00 | 0.00 | 0.00 | 85 | 1017.4 |
| 20260505172109 | 57 | 287 | 2.0 | 6.0 | 0.00 | 0.00 | 0.00 | 86 | 1017.3 |
| 20260505171603 | 57 | 289 | 2.0 | 6.0 | 0.00 | 0.00 | 0.00 | 86 | 1017.3 |
| 20260505171100 | 57 | 47 | 0.0 | 5.0 | 0.00 | 0.00 | 0.00 | 86 | 1017.4 |
| 20260505170557 | 57 | 204 | 2.0 | 7.0 | 0.00 | 0.00 | 0.00 | 86 | 1017.2 |
| 20260505170053 | 57 | 105 | 2.0 | 5.0 | 0.00 | 0.00 | 0.00 | 86 | 1017.2 |
| 20260505165548 | 57 | 292 | 1.0 | 4.0 | 0.00 | 0.00 | 0.00 | 86 | 1017.5 |
| 20260505165045 | 57 | 2 | 0.0 | 5.0 | 0.00 | 0.00 | 0.00 | 86 | 1017.7 |
| 20260505164541 | 57 | 298 | 2.0 | 4.0 | 0.00 | 0.00 | 0.00 | 86 | 1017.4 |
| 20260505164038 | 57 | 237 | 0.0 | 5.0 | 0.00 | 0.00 | 0.00 | 85 | 1017.2 |
| 20260505163537 | 57 | 225 | 2.0 | 4.0 | 0.00 | 0.00 | 0.00 | 84 | 1017.1 |
| 20260505163033 | 57 | 277 | 5.0 | 7.0 | 0.00 | 0.00 | 0.00 | 82 | 1017.1 |
| 20260505162526 | 57 | 305 | 4.0 | 5.0 | 0.00 | 0.00 | 0.00 | 81 | 1017.3 |
| 20260505162024 | 57 | 264 | 4.0 | 6.0 | 0.00 | 0.00 | 0.00 | 80 | 1016.9 |
| 20260505161520 | 57 | 208 | 2.0 | 5.0 | 0.00 | 0.00 | 0.00 | 80 | 1016.7 |
| 20260505161017 | 57 | 236 | 2.0 | 4.0 | 0.00 | 0.00 | 0.00 | 79 | 1016.8 |
| 20260505160515 | 57 | 29 | 0.0 | 5.0 | 0.00 | 0.00 | 0.00 | 80 | 1016.7 |
| 20260505152946 | 57 | 299 | 0.0 | 6.0 | 0.00 | 0.00 | 0.00 | 81 | 1016.7 |
| 20260505152443 | 57 | 247 | 3.0 | 7.0 | 0.00 | 0.00 | 0.00 | 82 | 1016.8 |
| 20260505151938 | 56 | 246 | 3.0 | 6.0 | 0.00 | 0.00 | 0.00 | 83 | 1016.7 |
| 20260505151434 | 56 | 212 | 2.0 | 5.0 | 0.00 | 0.00 | 0.00 | 83 | 1016.8 |
| 20260505150931 | 56 | 218 | 4.0 | 6.0 | 0.00 | 0.00 | 0.00 | 83 | 1016.8 |
| 20260505150428 | 56 | 223 | 3.0 | 6.0 | 0.00 | 0.00 | 0.00 | 83 | 1016.9 |
| 20260505140358 | 53 | 219 | 3.0 | 6.0 | 0.00 | 0.00 | 0.00 | 89 | 1016.0 |
| 20260505124812 | 52 | 214 | 2.0 | 5.0 | 0.00 | 0.00 | 0.00 | 90 | 1015.9 |
| 20260505124308 | 52 | 283 | 1.0 | 6.0 | 0.00 | 0.00 | 0.00 | 90 | 1016.1 |
| 20260505123804 | 52 | 221 | 2.0 | 7.0 | 0.00 | 0.00 | 0.00 | 90 | 1016.1 |
| 20260505123301 | 52 | 197 | 3.0 | 5.0 | 0.00 | 0.00 | 0.00 | 90 | 1015.9 |
| 20260505122757 | 52 | 207 | 2.0 | 6.0 | 0.00 | 0.00 | 0.00 | 90 | 1016.1 |
| 20260505122255 | 52 | 202 | 4.0 | 6.0 | 0.00 | 0.00 | 0.00 | 90 | 1015.8 |
| 20260505121751 | 52 | 205 | 3.0 | 4.0 | 0.00 | 0.00 | 0.00 | 90 | 1016.1 |
| 20260505121248 | 52 | 180 | 1.0 | 6.0 | 0.00 | 0.00 | 0.00 | 91 | 1016.1 |
| 20260505120744 | 52 | 235 | 2.0 | 5.0 | 0.00 | 0.00 | 0.00 | 91 | 1015.9 |
| 20260505120241 | 52 | 109 | 0.0 | 4.0 | 0.00 | 0.00 | 0.00 | 92 | 1016.0 |
| 20260505115739 | 52 | 219 | 3.0 | 6.0 | 0.00 | 0.00 | 0.00 | 92 | 1015.9 |
| 20260505115237 | 52 | 207 | 2.0 | 5.0 | 0.00 | 0.00 | 0.00 | 92 | 1015.5 |
| 20260505114734 | 52 | 210 | 3.0 | 7.0 | 0.00 | 0.00 | 0.00 | 92 | 1015.7 |
| 20260505114230 | 52 | 196 | 2.0 | 6.0 | 0.00 | 0.00 | 0.00 | 92 | 1015.9 |
| 20260505113727 | 52 | 205 | 1.0 | 4.0 | 0.00 | 0.00 | 0.00 | 92 | 1015.8 |
| 20260505113224 | 52 | 227 | 3.0 | 6.0 | 0.00 | 0.00 | 0.00 | 92 | 1015.9 |
| 20260505112720 | 52 | 191 | 3.0 | 7.0 | 0.00 | 0.00 | 0.00 | 92 | 1015.7 |
| 20260505112218 | 52 | 241 | 3.0 | 6.0 | 0.00 | 0.00 | 0.00 | 93 | 1015.8 |
| 20260505111717 | 52 | 206 | 3.0 | 5.0 | 0.00 | 0.00 | 0.00 | 94 | 1015.7 |
| 20260505111214 | 52 | 218 | 2.0 | 4.0 | 0.00 | 0.00 | 0.00 | 94 | 1015.8 |
| 20260505110709 | 52 | 206 | 2.0 | 5.0 | 0.00 | 0.00 | 0.00 | 94 | 1015.8 |
| 20260505110207 | 52 | 246 | 0.0 | 6.0 | 0.00 | 0.00 | 0.00 | 95 | 1015.8 |
| 20260505102142 | 52 | 223 | 3.0 | 6.0 | 0.00 | 0.00 | 0.00 | 95 | 1016.0 |
| 20260505101641 | 52 | 219 | 2.0 | 5.0 | 0.00 | 0.00 | 0.00 | 95 | 1015.6 |
| 20260505101137 | 52 | 211 | 3.0 | 5.0 | 0.00 | 0.00 | 0.00 | 95 | 1016.0 |
| 20260505100633 | 52 | 210 | 0.0 | 5.0 | 0.00 | 0.00 | 0.00 | 95 | 1015.8 |
| 20260505100130 | 52 | 215 | 2.0 | 6.0 | 0.00 | 0.00 | 0.00 | 95 | 1015.8 |
| 20260505095626 | 52 | 210 | 2.0 | 5.0 | 0.00 | 0.00 | 0.00 | 95 | 1016.1 |
| 20260505095123 | 52 | 209 | 3.0 | 6.0 | 0.00 | 0.00 | 0.00 | 94 | 1015.9 |
| 20260505094620 | 52 | 226 | 0.0 | 5.0 | 0.00 | 0.00 | 0.00 | 94 | 1016.1 |
| 20260505094116 | 52 | 220 | 0.0 | 6.0 | 0.00 | 0.00 | 0.00 | 94 | 1016.1 |
| 20260505093613 | 52 | 240 | 0.0 | 4.0 | 0.00 | 0.00 | 0.00 | 94 | 1016.0 |
| 20260505093110 | 52 | 205 | 0.0 | 5.0 | 0.00 | 0.00 | 0.00 | 94 | 1016.3 |
| 20260505092607 | 52 | 222 | 1.0 | 5.0 | 0.00 | 0.00 | 0.00 | 94 | 1016.1 |
| 20260505092106 | 52 | 216 | 2.0 | 5.0 | 0.00 | 0.00 | 0.00 | 94 | 1016.1 |
| 20260505091602 | 52 | 234 | 2.0 | 6.0 | 0.00 | 0.00 | 0.00 | 94 | 1016.2 |
| 20260505091100 | 52 | 215 | 3.0 | 5.0 | 0.00 | 0.00 | 0.00 | 94 | 1016.3 |
| 20260505090558 | 52 | 240 | 0.0 | 5.0 | 0.00 | 0.00 | 0.00 | 93 | 1016.3 |
| 20260505090056 | 52 | 205 | 3.0 | 6.0 | 0.00 | 0.00 | 0.00 | 93 | 1016.2 |
| 20260505085553 | 52 | 230 | 1.0 | 6.0 | 0.00 | 0.00 | 0.00 | 93 | 1016.1 |
| 20260505085051 | 52 | 216 | 3.0 | 5.0 | 0.00 | 0.00 | 0.00 | 93 | 1016.2 |
| 20260505084549 | 52 | 223 | 2.0 | 5.0 | 0.00 | 0.00 | 0.00 | 93 | 1016.1 |
| 20260505084047 | 52 | 200 | 2.0 | 5.0 | 0.00 | 0.00 | 0.00 | 93 | 1016.3 |
| 20260505083543 | 52 | 199 | 1.0 | 6.0 | 0.00 | 0.00 | 0.00 | 93 | 1016.3 |
| 20260505083040 | 52 | 211 | 3.0 | 6.0 | 0.00 | 0.00 | 0.00 | 93 | 1016.3 |
| 20260505082536 | 52 | 209 | 0.0 | 5.0 | 0.00 | 0.00 | 0.00 | 93 | 1016.3 |
| 20260505082033 | 52 | 211 | 3.0 | 6.0 | 0.00 | 0.00 | 0.00 | 93 | 1016.4 |
| 20260505081529 | 52 | 216 | 3.0 | 5.0 | 0.00 | 0.00 | 0.00 | 93 | 1016.7 |
| 20260505081027 | 52 | 211 | 2.0 | 7.0 | 0.00 | 0.00 | 0.00 | 93 | 1016.5 |
| 20260505080523 | 52 | 214 | 4.0 | 6.0 | 0.00 | 0.00 | 0.00 | 93 | 1016.6 |
| 20260505080020 | 52 | 223 | 1.0 | 5.0 | 0.00 | 0.00 | 0.00 | 93 | 1016.5 |
| 20260505075516 | 52 | 210 | 4.0 | 5.0 | 0.00 | 0.00 | 0.00 | 93 | 1016.7 |
| 20260505075013 | 52 | 211 | 1.0 | 4.0 | 0.00 | 0.00 | 0.00 | 93 | 1016.4 |
| 20260505074510 | 52 | 231 | 2.0 | 5.0 | 0.00 | 0.00 | 0.00 | 93 | 1016.8 |
| 20260505074007 | 52 | 218 | 2.0 | 5.0 | 0.00 | 0.00 | 0.00 | 93 | 1016.6 |
| 20260505073504 | 52 | 224 | 2.0 | 5.0 | 0.00 | 0.00 | 0.00 | 93 | 1016.6 |
| 20260505073002 | 52 | 214 | 3.0 | 6.0 | 0.00 | 0.00 | 0.00 | 93 | 1016.7 |
| 20260505072458 | 52 | 212 | 2.0 | 5.0 | 0.00 | 0.00 | 0.00 | 94 | 1016.6 |
| 20260505071954 | 52 | 222 | 2.0 | 4.0 | 0.00 | 0.00 | 0.00 | 94 | 1016.7 |
| 20260505071449 | 52 | 194 | 1.0 | 5.0 | 0.00 | 0.00 | 0.00 | 93 | 1016.5 |
| 20260505070948 | 52 | 219 | 5.0 | 5.0 | 0.00 | 0.00 | 0.00 | 94 | 1016.5 |
| 20260505070444 | 52 | 209 | 3.0 | 4.0 | 0.00 | 0.00 | 0.00 | 93 | 1016.4 |
| 20260505065940 | 52 | 225 | 3.0 | 5.0 | 0.00 | 0.00 | 0.00 | 94 | 1016.4 |
| 20260505065437 | 51 | 224 | 0.0 | 5.0 | 0.00 | 0.00 | 0.00 | 94 | 1016.5 |
| 20260505064933 | 51 | 175 | 0.0 | 5.0 | 0.00 | 0.00 | 0.00 | 94 | 1016.5 |
| 20260505064431 | 51 | 219 | 2.0 | 6.0 | 0.00 | 0.00 | 0.00 | 93 | 1016.5 |
| 20260505063929 | 51 | 206 | 2.0 | 5.0 | 0.00 | 0.00 | 0.00 | 93 | 1016.6 |
| 20260505063425 | 51 | 215 | 3.0 | 5.0 | 0.00 | 0.00 | 0.00 | 93 | 1016.4 |
| 20260505062922 | 51 | 229 | 2.0 | 5.0 | 0.00 | 0.00 | 0.00 | 93 | 1016.5 |
| 20260505062419 | 52 | 231 | 3.0 | 4.0 | 0.00 | 0.00 | 0.00 | 93 | 1016.6 |
| 20260505061915 | 52 | 211 | 3.0 | 6.0 | 0.00 | 0.00 | 0.00 | 93 | 1016.4 |
| 20260505061414 | 52 | 229 | 2.0 | 5.0 | 0.00 | 0.00 | 0.00 | 93 | 1016.5 |
| 20260505060911 | 52 | 203 | 3.0 | 5.0 | 0.00 | 0.00 | 0.00 | 92 | 1016.5 |
| 20260505060408 | 52 | 219 | 2.0 | 5.0 | 0.00 | 0.00 | 0.00 | 92 | 1016.9 |
| 20260505055904 | 52 | 217 | 3.0 | 5.0 | 0.00 | 0.00 | 0.00 | 92 | 1016.6 |
| 20260505055400 | 52 | 218 | 3.0 | 6.0 | 0.00 | 0.00 | 0.00 | 92 | 1016.7 |
| 20260505054857 | 52 | 205 | 4.0 | 7.0 | 0.00 | 0.00 | 0.00 | 92 | 1016.7 |
| 20260505054354 | 52 | 207 | 4.0 | 5.0 | 0.00 | 0.00 | 0.00 | 91 | 1016.6 |
| 20260505053853 | 52 | 206 | 3.0 | 5.0 | 0.00 | 0.00 | 0.00 | 91 | 1016.7 |
| 20260505053349 | 52 | 209 | 3.0 | 6.0 | 0.00 | 0.00 | 0.00 | 91 | 1016.6 |
| 20260505052846 | 52 | 194 | 1.0 | 7.0 | 0.00 | 0.00 | 0.00 | 91 | 1016.8 |
| 20260505052343 | 52 | 208 | 3.0 | 5.0 | 0.00 | 0.00 | 0.00 | 91 | 1016.7 |